Weather History for Cherry Point, NC

Change the Weather History Date:

Thursday, January 17, 2013

  Actual Average Record
Temperature  
Mean Temperature 54 °F -  
Max Temperature 66 °F 51 °F 70 °F (2006)
Min Temperature 42 °F 32 °F 18 °F (1997)
Degree Days  
Heating Degree Days 11    
Growing Degree Days 4 (Base 50)    
Moisture  
Dew Point 53 °F    
Average Humidity 90    
Maximum Humidity 100    
Minimum Humidity 81    
Precipitation  
Precipitation 0.37 in - - ()
Sea Level Pressure  
Sea Level Pressure 29.96 in    
Wind  
Wind Speed 7 mph ()    
Max Wind Speed 23 mph    
Max Gust Speed 30 mph    
Visibility 2.2 miles    
Events Fog , Rain    
Averages and records for this station are not official NWS values.
T = Trace of Precipitation, MM = Missing Value Source: Averaged Metar Reports

Daily Weather History Graph

Daily Weather History Graph

Search for Another Location

Airport:

Trip Planner

Search our weather history database for the weather conditions in past years. The results will help you decide how hot, cold, wet, or windy it might be!

Date:

Astronomy

Jan. 17, 2013 Rise Set
Actual Time 7:14 AM EST 5:21 PM EST
Civil Twilight 6:46 AM EST 5:48 PM EST
Nautical Twilight 6:15 AM EST 6:19 PM EST
Astronomical Twilight 5:45 AM EST 6:50 PM EST
Moon 10:37 AM EST (1/17) 11:52 PM EST (1/17)
Length of Visible Light 11h 02m
Length of Day
10h 07m
Waxing Crescent, 37% of the Moon is Illuminated
Jan 17
Waxing Crescent
Jan 18
First Quarter
Jan 26
Full
Feb 3
Last Quarter
Feb 10
New

Hourly Weather History & Observations

Time (EST) Temp. Windchill Dew Point Humidity Pressure Visibility Wind Dir Wind Speed Gust Speed Precip Events Conditions
12:54 AM 60.1 °F - 55.9 °F 86% 29.98 in 8.0 mi South 8.1 mph - N/A   Clear
1:54 AM 59.0 °F - 57.0 °F 93% 29.99 in 4.0 mi Calm Calm - N/A   Clear
2:05 AM 59.0 °F - 57.2 °F 94% 30.00 in 3.0 mi SSW 3.5 mph - N/A   Scattered Clouds
2:11 AM 57.2 °F - 57.2 °F 100% 30.00 in 1.8 mi SW 3.5 mph - N/A   Scattered Clouds
2:18 AM 57.2 °F - 55.4 °F 94% 30.00 in 1.0 mi SW 5.8 mph - N/A   Mostly Cloudy
2:22 AM 60.8 °F - 57.2 °F 88% 30.00 in 0.8 mi SW 5.8 mph - N/A   Mostly Cloudy
2:33 AM 60.8 °F - 59.0 °F 94% 30.00 in 0.5 mi WSW 5.8 mph - N/A Fog Fog
2:43 AM 60.8 °F - 60.8 °F 100% 30.00 in 0.2 mi SW 6.9 mph - N/A Fog Fog
2:54 AM 62.1 °F - 60.1 °F 93% 29.99 in 0.2 mi SW 5.8 mph - N/A Fog Fog
3:54 AM 61.0 °F - 60.1 °F 97% 29.98 in 0.2 mi SSW 4.6 mph - N/A Fog Fog
4:07 AM 62.6 °F - 60.8 °F 94% 29.98 in 0.5 mi Calm Calm - N/A Fog Fog
4:27 AM 60.8 °F - 60.8 °F 100% 29.97 in 0.2 mi WSW 3.5 mph - N/A Fog Fog
4:54 AM 61.0 °F - 60.1 °F 97% 29.96 in 0.2 mi Calm Calm - N/A Fog Fog
5:54 AM 60.1 °F - 57.9 °F 93% 29.96 in 0.2 mi South 3.5 mph - N/A Fog Fog
6:00 AM 60.8 °F - 57.2 °F 88% 29.97 in 0.8 mi Calm Calm - N/A   Mist
6:03 AM 60.8 °F - 57.2 °F 88% 29.97 in 2.5 mi Calm Calm - N/A   Mostly Cloudy
6:07 AM 60.8 °F - 57.2 °F 88% 29.97 in 0.5 mi Calm Calm - N/A Fog Fog
6:13 AM 60.8 °F - 57.2 °F 88% 29.97 in 0.8 mi Calm Calm - N/A   Mist
6:23 AM 60.8 °F - 57.2 °F 88% 29.97 in 0.8 mi Calm Calm - N/A   Scattered Clouds
6:54 AM 61.0 °F - 59.0 °F 93% 29.97 in 0.8 mi Variable 3.5 mph - 0.01 in   Scattered Clouds
7:01 AM 60.8 °F - 59.0 °F 94% 29.98 in 2.5 mi SSW 3.5 mph - N/A   Scattered Clouds
7:54 AM 61.0 °F - 59.0 °F 93% 29.98 in 2.5 mi SW 5.8 mph - N/A Fog Scattered Clouds
8:01 AM 60.8 °F - 59.0 °F 94% 29.99 in 4.0 mi WSW 5.8 mph - N/A   Scattered Clouds
8:54 AM 62.1 °F - 60.1 °F 93% 30.00 in 8.0 mi WSW 4.6 mph - N/A   Mostly Cloudy
9:54 AM 66.0 °F - 61.0 °F 84% 30.00 in 10.0 mi Calm Calm - N/A   Scattered Clouds
10:54 AM 66.0 °F - 60.1 °F 81% 29.98 in 10.0 mi North 8.1 mph - N/A   Scattered Clouds
11:08 AM 64.4 °F - 59.0 °F 83% 29.98 in 9.0 mi NE 10.4 mph - N/A   Mostly Cloudy
11:16 AM 62.6 °F - 57.2 °F 82% 29.98 in 6.0 mi NE 11.5 mph - N/A   Haze
11:35 AM 62.6 °F - 59.0 °F 88% 29.98 in 1.5 mi NE 10.4 mph - N/A   Overcast
11:54 AM 62.1 °F - 59.0 °F 90% 29.96 in 1.5 mi NE 9.2 mph - N/A   Overcast
12:01 PM 60.8 °F - 57.2 °F 88% 29.97 in 1.5 mi NE 11.5 mph 21.9 mph N/A   Overcast
12:15 PM 59.0 °F - 55.4 °F 88% 29.96 in 1.5 mi ENE 11.5 mph - N/A   Overcast
12:27 PM 57.2 °F - 55.4 °F 94% 29.96 in 0.8 mi NE 12.7 mph - N/A   Overcast
12:54 PM 57.0 °F - 54.0 °F 89% 29.94 in 0.5 mi ENE 11.5 mph - N/A   Overcast
1:54 PM 55.9 °F - 52.0 °F 87% 29.93 in 0.5 mi ENE 12.7 mph - N/A   Overcast
2:54 PM 54.0 °F - 51.1 °F 90% 29.93 in 0.5 mi East 13.8 mph 21.9 mph N/A   Overcast
3:59 PM 51.8 °F - 48.2 °F 88% 29.92 in 1.5 mi ENE 20.7 mph 26.5 mph N/A   Overcast
4:54 PM 50.0 °F - 48.0 °F 93% 29.90 in 1.5 mi ENE 19.6 mph 26.5 mph N/A   Overcast
5:54 PM 48.0 °F - 45.0 °F 89% 29.91 in 1.5 mi NE 20.7 mph 29.9 mph N/A   Overcast
6:54 PM 46.9 °F - 44.1 °F 90% 29.88 in 1.5 mi NE 17.3 mph 27.6 mph 0.00 in   Overcast
7:54 PM 46.9 °F - 44.1 °F 90% 29.89 in 1.5 mi NNE 13.8 mph 26.5 mph 0.01 in Rain Light Rain
8:54 PM 46.9 °F - 44.1 °F 90% 29.84 in 1.5 mi NNE 17.3 mph 27.6 mph 0.01 in   Overcast
9:54 PM 46.0 °F 38.5 °F 42.1 °F 86% 29.90 in 1.5 mi NNW 19.6 mph 25.3 mph N/A Rain Heavy Rain
10:00 PM 46.4 °F 40.4 °F 42.8 °F 87% 29.91 in 1.5 mi North 13.8 mph 25.3 mph 0.01 in Rain Rain
10:08 PM 46.4 °F 39.8 °F 42.8 °F 87% 29.90 in 1.5 mi North 16.1 mph - 0.04 in Rain Rain
10:22 PM 44.6 °F 36.4 °F 42.8 °F 93% 29.90 in 1.5 mi North 20.7 mph 25.3 mph 0.11 in Rain Rain
10:30 PM 44.6 °F 36.6 °F 41.0 °F 87% 29.91 in 1.5 mi North 19.6 mph 28.8 mph 0.13 in Rain Rain
10:33 PM 44.6 °F 36.9 °F 41.0 °F 87% 29.91 in 1.5 mi North 18.4 mph 28.8 mph 0.14 in Rain Rain
10:54 PM 43.0 °F 34.0 °F 39.9 °F 89% 29.91 in 1.5 mi North 21.9 mph 29.9 mph 0.21 in Rain Light Rain
11:12 PM 42.8 °F 33.5 °F 39.2 °F 87% 29.94 in 1.5 mi North 23.0 mph 28.8 mph 0.04 in Rain Light Rain
11:54 PM 43.0 °F 35.7 °F 39.0 °F 86% 29.94 in 1.5 mi North 15.0 mph - 0.13 in   Overcast